Regional Weather Roundup
Issued by NWS

Home | Current Version | Previous Version | Text Only | Print | Product List | Glossary On
Versions: 1 2 3 4 5 6 7 8 9 10 11 12 13 14 15 16 17 18 19 20 21 22 23 24 25 26 27 28 29 30 31 32 33 34 35 36 37 38 39 40 41 42 43 44 45 46 47 48 49 50
000
ASUS43 KLOT 310221
RWRIL

ILLINOIS REGIONAL WEATHER ROUNDUP
NATIONAL WEATHER SERVICE CHICAGO/ROMEOVILLE IL
900 PM CDT SUN AUG 30 2015

NOTE: "FAIR" INDICATES FEW OR NO CLOUDS BELOW 12,000 FEET WITH NO
SIGNIFICANT WEATHER AND/OR OBSTRUCTIONS TO VISIBILITY.

* THESE STATIONS ARE NOT UNDER NWS QUALITY CONTROL. THEY ALSO MAY NOT
  REPORT WEATHER SUCH AS PRECIPITATION OR FOG.

ILZ001-002-007-009-015-016-024-310300-
NORTHWEST ILLINOIS

CITY           SKY/WX    TMP DP  RH WIND       PRES   REMARKS
MOLINE         CLEAR     68  64  87 E3        30.01R
STERLING*        N/A    N/A N/A N/A MISG        N/A
SAVANNA*       CLEAR     65  64  93 CALM      30.03R FOG
$$

ILZ003-004-008-010-011-017-018-310300-
NORTH CENTRAL ILLINOIS

CITY           SKY/WX    TMP DP  RH WIND       PRES   REMARKS
ROCKFORD       PTCLDY    67  63  87 CALM      30.05R
FREEPORT*      CLEAR     63  62  97 CALM      30.06R
ROCHELLE*      CLEAR     64  63  96 CALM      30.05R
DE KALB*       CLEAR     67  63  89 CALM      30.05S
PERU*          CLEAR     71  64  78 SE5       30.04R
$$

ILZ005-006-012>014-019>023-310300-
NORTHEAST ILLINOIS

CITY           SKY/WX    TMP DP  RH WIND       PRES   REMARKS
CHICAGO-OHARE  CLEAR     68  63  84 E6        30.04R
CHICAGO-MIDWAY CLEAR     70  64  81 SE6       30.04R
AURORA         CLEAR     66  63  90 CALM      30.04R
LANSING*       CLEAR     67  65  94 CALM      30.05R FOG
JOLIET*        CLEAR     67  65  92 CALM      30.04R
WAUKEGAN       CLEAR     62  61  96 CALM      30.04R FOG
DUPAGE AIRPORT CLEAR     65  62  90 CALM      30.03R
KANKAKEE*      CLEAR     69  67  93 CALM      30.05R
WHEELING       CLEAR     65  62  90 CALM      30.05R
MORRIS*        CLEAR     69  65  88 CALM      30.03R
ROMEOVILLE*    CLEAR     69  63  81 CALM      30.05R
NORTHERLY ISL    N/A     68  65  90 E5          N/A
$$

LMZ740>746-310300-
SOUTHERN LAKE MICHIGAN

STATION/POSITION SKY/WX   TEMP    WIND        PRES    VSBY  WAVE
                          AIR SEA DIR/SP/G                  HT/PER
                          (F)     (DEG/KT/KT) (MB)    (MI)  (FT/S)
SOUTHERN BUOY              67 68  150/  4/  4 1017.0R         0
WILMETTE HARBOR            62 61   CALM  /  2   N/A           1
HARRISON CRIB              68     110/  7/  8   N/A
BURNHAM HARBOR             68     100/  4/  5   N/A
BURNS HARBOR               69      60/  8/  9 1017.3R
MICHIGAN CITY              69      30/  6/  6   N/A
MICHIGAN CITY 6N           69 71   70/  6/  8   N/A           1
ST. JOSEPH                 69 71   70/  4/  6   N/A           1
$$

ILZ025>027-034>036-040-047-049-050-058-095>099-310300-
WEST-CENTRAL ILLINOIS

CITY           SKY/WX    TMP DP  RH WIND       PRES   REMARKS
QUINCY         CLEAR     77  69  76 E6        30.01R
GALESBURG*     CLEAR     67  66  96 CALM      30.03R
MACOMB*        CLEAR     68  67  95 E3        30.04R
JACKSONVILLE*  CLEAR     74  70  86 CALM      30.02R
PITTSFIELD*    CLEAR     74  69  87 CALM      30.03R
$$

ILZ028>032-037-038-041>044-048-051>054-059>061-310300-
CENTRAL ILLINOIS

CITY           SKY/WX    TMP DP  RH WIND       PRES   REMARKS
PONTIAC        CLEAR     68  67  96 CALM      30.05R
BLOOMINGTON    CLEAR     72  70  93 NE7       30.06R
DECATUR        CLEAR     77  68  73 S5        30.03R
PEORIA         CLEAR     73  67  81 NE5       30.03R
LACON*         CLEAR     68  64  88 E3        30.03R
LINCOLN*       CLEAR     74  68  82 NE3       30.02R
SPRINGFIELD    MOCLDY    76  71  85 CALM      30.02R
TAYLORVILLE    CLEAR     72  70  94 CALM      30.02S
$$

ILZ033-039-045-046-055>057-062-063-310300-
EAST-CENTRAL ILLINOIS

CITY           SKY/WX    TMP DP  RH WIND       PRES   REMARKS
CHAMPAIGN      MOCLDY    72  68  87 SE3       30.04R
RANTOUL*       CLEAR     77  72  85 N5        30.04R
MATTOON        CLEAR     74  68  81 CALM      30.03R
PARIS*         MOCLDY    72  69  89 CALM      30.05R
$$

ILZ079-100>102-310300-
SOUTHWEST ILLINOIS

CITY           SKY/WX    TMP DP  RH WIND       PRES   REMARKS
ALTON          CLEAR     73  70  88 CALM      30.01R
BELLEVILLE     PTCLDY    77  74  91 CALM      30.01R
CAHOKIA*       MOCLDY    78  69  73 S6        30.01R HX  80
SPARTA*        MOCLDY    76  73  87 S5        30.04R
$$

ILZ064>066-069>071-074>076-080>082-084>086-088>090-092>094-310300-
SOUTH-CENTRAL ILLINOIS

CITY           SKY/WX    TMP DP  RH WIND       PRES   REMARKS
CARBONDALE     CLEAR     76  71  85 SE6       30.03R
CAIRO*         CLEAR     72  71  95 SE3       30.04S
EFFINGHAM*     CLEAR     71  68  89 CALM      30.05R
MARION         CLEAR     77  72  83 SE3       30.04S
MT. VERNON     CLEAR     75  66  73 CALM      30.05R
SALEM*         CLEAR     79  69  72 S3        30.03R HX  81
METROPOLIS*    PTCLDY    73  70  91 CALM      30.06R
$$

ILZ067-068-072-073-078-083-087-091-310300-
SOUTHEAST ILLINOIS

CITY           SKY/WX    TMP DP  RH WIND       PRES   REMARKS
LAWRENCEVILLE  MOCLDY    73  69  87 S7        30.05R
FLORA*         CLEAR     72  67  84 S5        30.05R
FAIRFIELD*     MOCLDY    74  70  86 SE3       30.04R
HARRISBURG*    PTCLDY    73  71  92 CALM      30.05R
ROBINSON*      CLEAR     71  68  90 S6        30.06R
CARMI*         PTCLDY    73  70  89 S6        30.05R
$$

ABBREVIATIONS USED IN REMARKS
   TC - TEMPERATURE IN CELSIUS
  WCI - WIND CHILL INDEX
   HX - HEAT INDEX
  VSB - VISIBILITY
$$




USA.gov is the U.S. government's official web portal to all federal, state and local government web resources and services.